User: anonymous   Login
Location: Mainz-Finthen
(49.9906°N, 8.1713°E)
Time: 12:19:01
(UTC+00:00)
Language:

SPROUT - Orbit

View from above orbital plane
View from above orbital plane
View from above satellite
View from above satellite

Ground track
Ground track

The orbit data is extracted from the following two-line orbital elements,

1 39770U 14029E   21340.07820518  .00001995  00000-0  21815-3 0  9997
2 39770  97.9297  91.3873 0008693  12.1782 347.9660 14.88969700408873
Epoch (UTC): 06 December 2021 01:52:36
Eccentricity: 0.0008693
inclination: 97.9297°
perigee height: 595 km
apogee height: 607 km
right ascension of ascending node: 91.3873°
argument of perigee: 12.1782°
revolutions per day: 14.88969700
mean anomaly at epoch: 347.9660°
orbit number at epoch: 40887

The dashed part of the orbit path shows where the satellite is in the earth's shadow,  

DLR